Pittston, PA

3:36 PM EST on December 07, 2016 (GMT -0500)
Wilkes-Barre-Scranton International

Weather History for KAVP - November, 2013

Change the Weather History Date:

Wednesday, November 20, 2013

  Actual Average Record
Temperature  
Mean Temperature 33 °F 40 °F  
Max Temperature 43 °F 48 °F 75 °F (1934)
Min Temperature 23 °F 32 °F 16 °F (1986)
Degree Days  
Heating Degree Days 32 25  
Month to date heating degree days 444 438  
Since 1 July heating degree days 928 1041  
Cooling Degree Days 0 0  
Month to date cooling degree days 0 0  
Year to date cooling degree days 795 580  
Moisture  
Dew Point 14 °F    
Average Humidity 54    
Maximum Humidity 81    
Minimum Humidity 27    
Precipitation  
Precipitation 0.00 in 0.11 in 1.42 in (1988)
Month to date precipitation 1.21 2.08  
Year to date precipitation 22.70 34.52  
Sea Level Pressure  
Sea Level Pressure 30.53 in    
Wind  
Wind Speed 3 mph (ENE)    
Max Wind Speed 9 mph    
Max Gust Speed 15 mph    
Visibility 10 miles    
Events      
T = Trace of Precipitation, MM = Missing Value Source: NWS Daily Summary

Daily Weather History Graph

Daily Weather History Graph

Search for Another Location

Airport or City:

Trip Planner

Search our weather history database for the weather conditions in past years. The results will help you decide how hot, cold, wet, or windy it might be!

Date:

Astronomy

Nov. 20, 2013 Rise Set
Actual Time 6:57 AM EST 4:39 PM EST
Civil Twilight 6:27 AM EST 5:09 PM EST
Nautical Twilight 5:53 AM EST 5:43 PM EST
Astronomical Twilight 5:20 AM EST 6:16 PM EST
Moon 7:20 PM EST (11/20) 9:20 AM EST (11/20)
Length of Visible Light 10h 42m
Length of Day
9h 42m
Waning Gibbous, 91% of the Moon is Illuminated
Nov 20
Waning Gibbous
Nov 25
Last Quarter
Dec 2
New
Dec 9
First Quarter
Dec 17
Full

Hourly Weather History & Observations

Time (EST) Temp. Windchill Dew Point Humidity Pressure Visibility Wind Dir Wind Speed Gust Speed Precip Events Conditions
12:54 AM 28.9 °F 22.8 °F 19.0 °F 67% 30.41 in 10.0 mi NW 5.8 mph - N/A   Mostly Cloudy
1:54 AM 28.9 °F - 19.9 °F 69% 30.42 in 10.0 mi Calm Calm - N/A   Clear
2:54 AM 28.9 °F 23.9 °F 19.9 °F 69% 30.44 in 10.0 mi North 4.6 mph - N/A   Clear
3:54 AM 28.0 °F 21.7 °F 19.9 °F 72% 30.47 in 10.0 mi NW 5.8 mph - N/A   Clear
4:54 AM 28.0 °F - 19.9 °F 72% 30.50 in 10.0 mi Calm Calm - N/A   Clear
5:54 AM 25.0 °F - 19.0 °F 78% 30.53 in 10.0 mi Calm Calm - N/A   Clear
6:54 AM 24.1 °F - 19.0 °F 81% 30.54 in 10.0 mi Calm Calm - N/A   Clear
7:54 AM 25.0 °F - 19.9 °F 81% 30.56 in 10.0 mi Calm Calm - N/A   Clear
8:54 AM 28.9 °F 25.2 °F 21.0 °F 72% 30.58 in 10.0 mi ENE 3.5 mph - N/A   Clear
9:54 AM 30.9 °F - 18.0 °F 59% 30.59 in 10.0 mi Calm Calm - N/A   Clear
10:54 AM 34.0 °F 31.0 °F 17.1 °F 50% 30.59 in 10.0 mi ENE 3.5 mph - N/A   Clear
11:54 AM 37.0 °F - 15.1 °F 41% 30.56 in 10.0 mi Calm Calm - N/A   Clear
12:54 PM 39.0 °F - 14.0 °F 36% 30.55 in 10.0 mi Calm Calm - N/A   Clear
1:54 PM 41.0 °F 38.0 °F 12.0 °F 31% 30.53 in 10.0 mi NE 4.6 mph - N/A   Clear
2:54 PM 42.1 °F 37.7 °F 10.0 °F 27% 30.52 in 10.0 mi NE 6.9 mph - N/A   Clear
3:54 PM 42.1 °F 37.7 °F 10.0 °F 27% 30.52 in 10.0 mi NE 6.9 mph - N/A   Clear
4:54 PM 39.0 °F - 9.0 °F 29% 30.52 in 10.0 mi Calm Calm - N/A   Clear
5:54 PM 36.0 °F 32.1 °F 6.1 °F 29% 30.53 in 10.0 mi SE 4.6 mph - N/A   Clear
6:54 PM 34.0 °F - 8.1 °F 34% 30.53 in 10.0 mi Calm Calm - N/A   Clear
7:54 PM 32.0 °F - 9.0 °F 38% 30.56 in 10.0 mi Calm Calm - N/A   Clear
8:54 PM 30.0 °F 26.5 °F 8.1 °F 40% 30.57 in 10.0 mi East 3.5 mph - N/A   Clear
9:54 PM 30.0 °F 25.2 °F 9.0 °F 41% 30.57 in 10.0 mi ESE 4.6 mph - N/A   Clear
10:54 PM 32.0 °F 25.6 °F 8.1 °F 37% 30.58 in 10.0 mi ESE 6.9 mph - N/A   Clear
11:54 PM 30.9 °F 23.5 °F 9.0 °F 40% 30.57 in 10.0 mi SE 8.1 mph - N/A   Clear